CT2IRK-11 Weather Reports


time (UTC)temp
F
wind
direction
speed
knots
gust
knots
rain 1hr
in
rain 24hr
in
rain mn
in
humidity
%
barometer
mb
20260508142005 73 220 6.1 10.4 0.00 0.00 0.00 38 1000.8
20260508141006 74 205 6.1 8.7 0.00 0.00 0.00 37 1000.8
20260508140005 77 180 5.2 8.7 0.00 0.00 0.00 34 1001.0
20260508135005 76 173 6.1 7.8 0.00 0.00 0.00 34 1001.1
20260508134005 76 215 6.1 8.7 0.00 0.00 0.00 35 1001.2
20260508133005 73 154 5.2 11.3 0.00 0.00 0.00 37 1001.3
20260508132005 72 202 7.0 11.3 0.00 0.00 0.00 40 1001.6
20260508131005 75 99 4.3 7.8 0.00 0.00 0.00 37 1001.8
20260508130005 70 180 8.7 11.3 0.00 0.00 0.00 43 1001.9
20260508125006 70 180 4.3 7.8 0.00 0.00 0.00 44 1001.9
20260508124006 74 215 6.1 7.0 0.00 0.00 0.00 39 1002.0
20260508122005 68 193 4.3 8.7 0.00 0.00 0.00 46 1002.3
20260508121005 69 214 7.8 12.2 0.00 0.00 0.00 44 1002.3
20260508120005 72 180 4.3 8.7 0.00 0.00 0.00 40 1002.5
20260508115005 72 183 4.3 11.3 0.00 0.00 0.00 39 1002.6
20260508114005 73 144 4.3 7.8 0.00 0.00 0.00 40 1002.7
20260508113006 70 255 3.5 7.8 0.00 0.00 0.00 44 1002.9
20260508111005 70 209 6.1 10.4 0.00 0.00 0.00 42 1003.0
20260508110005 72 182 6.1 8.7 0.00 0.00 0.00 41 1003.2
20260508104005 72 229 6.1 10.4 0.00 0.00 0.00 42 1003.3
20260508103005 73 182 7.0 10.4 0.00 0.00 0.00 42 1003.3
20260508102005 71 224 5.2 8.7 0.00 0.00 0.00 43 1003.5
20260508101005 71 231 4.3 10.4 0.00 0.00 0.00 43 1003.5
20260508100005 69 194 5.2 10.4 0.00 0.00 0.00 45 1003.5
20260508095005 69 194 3.5 8.7 0.00 0.00 0.00 49 1003.6
20260508094005 68 188 6.1 7.0 0.00 0.00 0.00 51 1003.7
20260508093005 66 180 4.3 7.0 0.00 0.00 0.00 56 1003.6
20260508092005 64 131 7.8 10.4 0.00 0.00 0.00 57 1003.8
20260508091005 66 168 5.2 8.7 0.00 0.00 0.00 57 1003.7
20260508085004 64 211 4.3 6.1 0.00 0.00 0.00 62 1003.8
20260508084005 63 170 2.6 5.2 0.00 0.00 0.00 63 1003.8
20260508083005 63 132 2.6 5.2 0.00 0.00 0.00 65 1003.7
20260508082005 62 246 2.6 6.1 0.00 0.00 0.00 67 1003.7
20260508080004 59 242 3.5 4.3 0.00 0.00 0.00 75 1003.7
20260508075005 59 199 2.6 4.3 0.00 0.00 0.00 75 1003.6
20260508073004 58 208 0.0 1.7 0.00 0.00 0.00 74 1003.5
20260508072005 58 183 0.0 0.0 0.00 0.00 0.00 73 1003.3
20260508070006 57 188 0.0 0.0 0.00 0.00 0.00 76 1002.9
20260508065005 57 136 0.0 0.0 0.00 0.00 0.00 76 1002.9
20260508063004 56 141 0.0 0.0 0.00 0.00 0.00 80 1002.9
20260508060005 56 80 0.0 0.0 0.00 0.00 0.00 81 1002.6
20260508055005 56 170 0.0 0.0 0.00 0.00 0.00 81 1002.6
20260508054005 56 22 0.0 0.0 0.00 0.00 0.00 81 1002.5
20260508053004 56 13 0.0 0.0 0.00 0.00 0.00 81 1002.4
20260508052005 56 270 0.0 0.0 0.00 0.00 0.00 81 1002.5
20260508051005 56 210 0.0 0.0 0.00 0.00 0.00 79 1002.4
20260508050004 56 195 0.0 0.0 0.00 0.00 0.00 78 1002.4
20260508045006 56 183 0.0 0.0 0.00 0.00 0.00 77 1002.4
20260508044005 56 210 0.0 0.0 0.00 0.00 0.00 77 1002.3
20260508043005 56 171 0.0 0.0 0.00 0.00 0.00 77 1002.3
20260508042006 56 158 0.0 0.0 0.00 0.00 0.00 78 1002.2
20260508040006 56 183 0.0 0.0 0.00 0.00 0.00 79 1002.1
20260508035005 56 158 0.0 0.0 0.00 0.00 0.00 80 1002.2
20260508033006 56 206 0.0 4.3 0.00 0.00 0.00 81 1002.3
20260508032005 56 201 4.3 5.2 0.00 0.00 0.00 81 1002.3
20260508030006 56 202 0.0 0.9 0.00 0.00 0.00 81 1002.4
20260508025006 56 133 0.0 6.1 0.00 0.00 0.00 82 1002.4
20260508024006 56 193 0.0 0.0 0.00 0.00 0.00 82 1002.3
20260508022005 56 188 0.0 0.0 0.00 0.00 0.00 83 1002.6
20260508021005 56 195 0.0 0.0 0.00 0.00 0.00 84 1002.8
20260508020005 56 178 0.0 0.0 0.00 0.00 0.00 84 1002.8
20260508015005 57 173 0.0 0.0 0.00 0.00 0.00 84 1002.8
20260508013006 57 202 5.2 6.1 0.00 0.00 0.00 83 1002.7
20260508012005 57 199 4.3 6.1 0.00 0.00 0.00 82 1003.0
20260508011005 57 191 0.0 0.0 0.00 0.00 0.00 82 1002.9
20260508010005 57 212 0.0 0.0 0.00 0.00 0.00 82 1003.0
20260508004005 58 177 0.0 0.0 0.00 0.00 0.00 81 1002.9
20260508001005 58 132 0.0 0.0 0.00 0.00 0.00 80 1003.1
20260508000005 58 227 0.0 0.0 0.00 0.00 0.00 80 1003.3
20260507235005 58 137 0.0 0.0 0.00 0.00 0.00 80 1003.3
20260507234005 58 217 0.0 0.0 0.00 0.00 0.00 81 1003.4
20260507233005 58 232 0.0 0.0 0.00 0.00 0.00 80 1003.4
20260507232006 58 320 0.0 0.0 0.00 0.00 0.00 81 1003.5
20260507231005 58 22 0.0 0.0 0.00 0.00 0.00 79 1003.6
20260507230006 58 35 0.0 0.0 0.00 0.00 0.00 79 1003.9
20260507225005 58 274 0.0 0.0 0.00 0.00 0.00 79 1003.9
20260507223005 58 270 1.7 4.3 0.00 0.00 0.00 78 1004.0
20260507222005 58 290 1.7 4.3 0.00 0.00 0.00 78 1004.0
20260507221005 58 269 0.9 5.2 0.00 0.00 0.00 78 1004.1
20260507215005 59 248 0.0 0.0 0.00 0.00 0.00 77 1004.2
20260507214005 59 303 0.0 0.0 0.00 0.00 0.00 76 1004.2
20260507213005 59 240 0.0 0.0 0.00 0.00 0.00 75 1004.4
20260507212005 60 287 0.0 0.0 0.00 0.00 0.00 74 1004.3
20260507211005 60 270 0.0 0.9 0.00 0.00 0.00 73 1004.2
20260507210007 60 265 2.6 2.6 0.00 0.00 0.00 73 1004.1
20260507205005 60 270 2.6 6.1 0.00 0.00 0.00 72 1004.0
20260507203005 60 270 0.0 0.0 0.00 0.00 0.00 71 1003.7
20260507202006 61 270 0.0 0.0 0.00 0.00 0.00 70 1003.6
20260507200005 61 293 0.0 0.0 0.00 0.00 0.00 68 1003.5
20260507195005 62 341 1.7 6.1 0.00 0.01 0.00 67 1003.4
20260507194006 62 280 2.6 5.2 0.00 0.01 0.00 66 1003.4
20260507193005 62 336 0.9 6.1 0.00 0.01 0.00 66 1003.3
20260507192005 62 288 1.7 7.0 0.00 0.01 0.00 66 1003.2
20260507191005 63 256 5.2 7.0 0.00 0.01 0.00 65 1003.1
20260507190006 63 248 4.3 7.8 0.00 0.01 0.00 64 1003.1
20260507185005 63 283 7.0 8.7 0.00 0.01 0.00 63 1003.0
20260507184005 64 273 6.1 8.7 0.00 0.01 0.00 62 1002.9
20260507183005 64 292 7.0 10.4 0.00 0.01 0.00 61 1002.8
20260507182005 64 258 10.4 13.0 0.00 0.01 0.00 61 1002.6
20260507181005 65 270 8.7 12.2 0.00 0.01 0.00 61 1002.4
20260507180005 66 272 10.4 13.9 0.00 0.01 0.00 59 1002.2
20260507175005 66 268 10.4 13.9 0.00 0.01 0.00 58 1002.1
20260507174005 67 271 11.3 12.2 0.00 0.01 0.00 57 1002.1
20260507173007 68 270 10.4 13.9 0.00 0.01 0.00 56 1002.0
20260507171006 69 261 9.6 12.2 0.00 0.01 0.00 53 1001.9
20260507170005 72 225 8.7 8.7 0.00 0.01 0.00 47 1001.8
20260507165006 73 270 8.7 11.3 0.00 0.01 0.00 47 1001.7
20260507164005 73 327 6.1 10.4 0.00 0.01 0.00 47 1001.6
20260507163005 72 273 7.8 11.3 0.00 0.01 0.00 45 1001.5
20260507161005 75 287 7.8 11.3 0.00 0.01 0.00 40 1001.5
20260507160008 75 233 7.8 11.3 0.00 0.01 0.00 39 1001.5
20260507155008 75 253 7.0 10.4 0.00 0.01 0.00 40 1001.6
20260507154017 74 171 2.6 10.4 0.00 0.01 0.00 39 1001.6
20260507153005 76 232 7.8 12.2 0.00 0.01 0.00 37 1001.6
20260507152006 77 237 2.6 10.4 0.00 0.01 0.00 36 1001.9
20260507151005 75 270 4.3 8.7 0.00 0.01 0.00 38 1002.0
20260507150006 73 247 6.1 8.7 0.00 0.01 0.00 40 1002.2
20260507145014 75 250 7.0 10.4 0.00 0.01 0.00 38 1002.2
20260507144006 77 261 8.7 11.3 0.00 0.01 0.00 36 1002.2
20260507143008 78 7 2.6 5.2 0.00 0.01 0.00 35 1002.2